Location: Dana
(41.8364°N, 106.7042°W)
Time: 20:42:29
(UTC+00:00)

Injun/Solrad 3 - Pass Details

Date: 19 May 2026
Orbit: 867 x 989 km, 66.8° (Epoch: 6 June)

Event Time Altitude Azimuth Distance (km) Brightness Sun altitude
Rises 19:38:35 0° 146° (SSE) 3,504 11.1 66.8°
Reaches altitude 10° 19:43:54 10° 107° (ESE) 2,609 10.4 66.4°
Maximum altitude 19:44:41 10° 99° (E) 2,597 10.3 66.4°
Drops below altitude 10° 19:45:29 10° 91° (E) 2,623 10.3 66.3°
Sets 19:50:55 0° 52° (NE) 3,614 10.8 65.9°
